Regional Weather Roundup
Issued by NWS

Home | Current Version | Previous Version | Graphics & Text | Print | Product List | Glossary On
Versions: 1 2 3 4 5 6 7 8 9 10 11 12 13 14 15 16 17 18 19 20 21 22 23 24 25 26 27 28 29 30 31 32 33 34 35 36 37 38 39 40 41 42 43 44 45 46 47 48 49 50
000
ASUS43 KOAX 081302
RWRNE

WEATHER ROUNDUP FOR NEBRASKA
NATIONAL WEATHER SERVICE OMAHA NE
700 AM CST MON FEB 08 2016

NOTES: SATELLITE DATA IS BEING USED TO AUGMENT CLOUD COVER ABOVE
       12000 FEET.
       "FAIR" INDICATES FEW OR NO CLOUDS BELOW 12,000 FEET WITH NO
       SIGNIFICANT WEATHER AND/OR OBSTRUCTIONS TO VISIBILITY.

  * THESE STATIONS DO NOT REPORT WEATHER SUCH AS RAIN...SNOW OR FOG.

NEZ001>004-019>022-054>056-081400-
NEBRASKA PANHANDLE

CITY           SKY/WX    TMP DP  RH WIND       PRES   REMARKS
SCOTTSBLUFF    CLOUDY    21  11  65 W13       30.37R WCI   9
ALLIANCE       CLOUDY    23   9  55 NW18      30.31S WCI   9
CHADRON        CLOUDY    27  13  55 NW14      30.37R WCI  16
KIMBALL        CLOUDY    25  13  61 NW8       30.35R WCI  16
SIDNEY         CLOUDY    21  10  62 NW16      30.32S WCI   7
$$

NEZ057>060-069>072-079>082-081400-
SOUTHWEST NEBRASKA

CITY           SKY/WX    TMP DP  RH WIND       PRES   REMARKS
NORTH PLATTE   CLEAR     23  12  62 NW20      30.27R WCI   8
IMPERIAL       CLEAR     24  11  57 NW16      30.32R WCI  11
MCCOOK         CLEAR     25  13  60 NW20      30.30R WCI  11
$$

NEZ005>010-023>029-035>040-094-081400-
NORTH CENTRAL NEBRASKA

CITY           SKY/WX    TMP DP  RH WIND       PRES   REMARKS
VALENTINE      CLEAR     24  15  68 NW18G25   30.26R WCI  10
AINSWORTH      CLEAR     25  15  66 NW25G31   30.22S WCI   9
BROKEN BOW     CLEAR     26  15  63 NW24G36   30.19R WCI  11
ORD            CLEAR     26  16  65 NW28G39   30.17R WCI  10
$$

NEZ041-046>049-061>064-073>077-083>087-081400-
SOUTH CENTRAL NEBRASKA

CITY           SKY/WX    TMP DP  RH WIND       PRES   REMARKS
GRAND ISLAND   PTCLDY    27  16  63 NW25G36   30.16R WCI  12
HASTINGS       CLEAR     26  16  65 NW17      30.15R WCI  13
HEBRON         CLOUDY    30  20  66 NW17G24   30.15R WCI  18
$$

NEZ011>018-030>034-042>045-081400-
NORTHEAST NEBRASKA

CITY           SKY/WX    TMP DP  RH WIND       PRES   REMARKS
NORFOLK        CLOUDY    28  17  63 NW30G39   30.07R WCI  12
COLUMBUS *     CLOUDY    28  12  50 NW25G33   30.10S WCI  14
FREMONT        CLOUDY    28  19  70 NW26G35   30.06S WCI  13
TEKAMAH        MIX PCPN  28  19  69 NW33G43   30.05R WCI  11
$$

NEZ050>053-065>068-078-088>093-081400-
SOUTHEAST NEBRASKA

CITY           SKY/WX    TMP DP  RH WIND       PRES   REMARKS
LINCOLN        CLOUDY    29  18  63 N24G41    30.09R WCI  15
OMAHA EPPLEY   FLURRIES  27  19  72 NW25G35   30.02R WCI  12
BEATRICE       CLOUDY    30  20  65 N25G31    30.10R WCI  16
FALLS CITY     FLURRIES  31  19  61 NW21G36   30.03R WCI  18
NEBRASKA CITY  CLOUDY    29  19  66 N25G40    30.03S WCI  15
$$

NEZ044-045-051>053-067-081400-
OMAHA AREA

CITY           SKY/WX    TMP DP  RH WIND       PRES   REMARKS
OMAHA EPPLEY   FLURRIES  27  19  72 NW25G35   30.02R WCI  12
FREMONT        CLOUDY    28  19  70 NW26G35   30.06S WCI  13
OFFUTT AFB     FLURRIES  28  19  67 NW23      30.02R WCI  14
WAHOO          CLOUDY    29  20  70 NW23G33   30.06R WCI  15
$$



USA.gov is the U.S. government's official web portal to all federal, state and local government web resources and services.